Location: Be?chatów
(51.3665°N, 19.3745°E)
Time: 16:57:44
(UTC+00:00)

ARIANE 6 FM1 Upper Stage - Pass Details

Date: 19 May 2025
Orbit: 530 x 611 km, 62.0° (Epoch: 20 June)

Event Time Altitude Azimuth Distance (km) Brightness Sun altitude
Rises 20:19:49 0° 235° (SW) 2,665 6.1 -12.4°
Reaches altitude 10° 20:22:01 10° 239° (WSW) 1,779 5.2 -12.6°
Maximum altitude 20:25:58 64° 321° (NW) 597 3.0 -12.9°
Drops below altitude 10° 20:30:00 10° 44° (NE) 1,809 5.4 -13.3°
Sets 20:32:15 0° 48° (NE) 2,715 6.3 -13.5°
